| time (UTC) | temp F | wind direction | speed MPH | gust MPH | rain 1hr in | rain 24hr in | rain mn in | humidity % | barometer mb |
| 20260502214111 | 57 | 85 | 1.0 | 5.0 | 0.00 | 0.00 | 0.00 | 80 | 1013.3 |
| 20260502213607 | 57 | 59 | 2.0 | 5.0 | 0.00 | 0.00 | 0.00 | 79 | 1013.3 |
| 20260502213059 | 57 | 40 | 2.0 | 5.0 | 0.00 | 0.00 | 0.00 | 79 | 1013.4 |
| 20260502212606 | 57 | 78 | 1.0 | 4.0 | 0.00 | 0.00 | 0.00 | 79 | 1013.5 |
| 20260502212048 | 57 | 78 | 1.0 | 3.0 | 0.00 | 0.00 | 0.00 | 79 | 1013.6 |
| 20260502211542 | 57 | 78 | 1.0 | 3.0 | 0.00 | 0.00 | 0.00 | 79 | 1013.7 |
| 20260502211036 | 57 | 78 | 1.0 | 3.0 | 0.00 | 0.00 | 0.00 | 79 | 1013.7 |
| 20260502210529 | 58 | 77 | 1.0 | 3.0 | 0.00 | 0.00 | 0.00 | 78 | 1013.7 |
| 20260502210026 | 58 | 78 | 1.0 | 3.0 | 0.00 | 0.00 | 0.00 | 78 | 1013.6 |
| 20260502205516 | 58 | 82 | 1.0 | 3.0 | 0.00 | 0.00 | 0.00 | 78 | 1013.6 |
| 20260502205014 | 58 | 70 | 1.0 | 3.0 | 0.00 | 0.00 | 0.00 | 77 | 1013.6 |
| 20260502203959 | 58 | 53 | 3.0 | 8.0 | 0.00 | 0.00 | 0.00 | 76 | 1013.6 |
| 20260502203726 | 58 | 26 | 3.0 | 6.0 | 0.00 | 0.00 | 0.00 | 76 | 1013.7 |
| 20260502202948 | 58 | 0 | 3.0 | 6.0 | 0.00 | 0.00 | 0.00 | 75 | 1013.7 |
| 20260502202443 | 59 | 350 | 3.0 | 8.0 | 0.00 | 0.00 | 0.00 | 75 | 1013.8 |
| 20260502201935 | 59 | 351 | 3.0 | 8.0 | 0.00 | 0.00 | 0.00 | 74 | 1013.9 |
| 20260502201701 | 59 | 33 | 2.0 | 6.0 | 0.00 | 0.00 | 0.00 | 74 | 1013.9 |
| 20260502200923 | 59 | 59 | 3.0 | 6.0 | 0.00 | 0.00 | 0.00 | 74 | 1014.1 |
| 20260502200418 | 59 | 347 | 3.0 | 6.0 | 0.00 | 0.00 | 0.00 | 73 | 1014.1 |
| 20260502195911 | 60 | 341 | 2.0 | 4.0 | 0.00 | 0.00 | 0.00 | 73 | 1014.2 |
| 20260502195404 | 60 | 351 | 2.0 | 5.0 | 0.00 | 0.00 | 0.00 | 72 | 1014.3 |
| 20260502194900 | 60 | 26 | 2.0 | 5.0 | 0.00 | 0.00 | 0.00 | 72 | 1014.2 |
| 20260502194353 | 60 | 74 | 2.0 | 8.0 | 0.00 | 0.00 | 0.00 | 72 | 1014.2 |
| 20260502193848 | 61 | 355 | 3.0 | 8.0 | 0.00 | 0.00 | 0.00 | 71 | 1014.1 |
| 20260502192834 | 61 | 335 | 2.0 | 5.0 | 0.00 | 0.00 | 0.00 | 71 | 1014.1 |
| 20260502192330 | 62 | 24 | 2.0 | 5.0 | 0.00 | 0.00 | 0.00 | 71 | 1014.1 |
| 20260502191824 | 62 | 24 | 2.0 | 5.0 | 0.00 | 0.00 | 0.00 | 70 | 1014.1 |
| 20260502191318 | 62 | 24 | 2.0 | 5.0 | 0.00 | 0.00 | 0.00 | 70 | 1014.1 |
| 20260502190812 | 63 | 347 | 2.0 | 5.0 | 0.00 | 0.00 | 0.00 | 69 | 1014.2 |
| 20260502190306 | 63 | 0 | 2.0 | 6.0 | 0.00 | 0.00 | 0.00 | 68 | 1014.0 |
| 20260502185758 | 63 | 24 | 2.0 | 6.0 | 0.00 | 0.00 | 0.00 | 67 | 1014.0 |
| 20260502185525 | 64 | 24 | 3.0 | 6.0 | 0.00 | 0.00 | 0.00 | 67 | 1014.0 |
| 20260502184755 | 64 | 25 | 3.0 | 9.0 | 0.00 | 0.00 | 0.00 | 67 | 1013.9 |
| 20260502184528 | 64 | 32 | 3.0 | 9.0 | 0.00 | 0.00 | 0.00 | 66 | 1014.0 |
| 20260502183753 | 65 | 351 | 4.0 | 9.0 | 0.00 | 0.00 | 0.00 | 66 | 1013.9 |
| 20260502183253 | 65 | 300 | 3.0 | 9.0 | 0.00 | 0.00 | 0.00 | 66 | 1014.0 |
| 20260502183026 | 65 | 342 | 2.0 | 5.0 | 0.00 | 0.00 | 0.00 | 66 | 1014.0 |
| 20260502182253 | 65 | 336 | 2.0 | 8.0 | 0.00 | 0.00 | 0.00 | 66 | 1014.0 |
| 20260502181750 | 66 | 300 | 3.0 | 10.0 | 0.00 | 0.00 | 0.00 | 65 | 1014.0 |
| 20260502181257 | 66 | 325 | 3.0 | 10.0 | 0.00 | 0.00 | 0.00 | 65 | 1013.9 |
| 20260502180249 | 67 | 298 | 3.0 | 9.0 | 0.00 | 0.00 | 0.00 | 66 | 1014.0 |
| 20260502170516 | 69 | 304 | 5.0 | 11.0 | 0.00 | 0.00 | 0.00 | 67 | 1014.4 |
| 20260502164243 | 70 | 254 | 6.0 | 11.0 | 0.00 | 0.00 | 0.00 | 68 | 1014.6 |
| 20260502163746 | 70 | 355 | 6.0 | 11.0 | 0.00 | 0.00 | 0.00 | 68 | 1014.6 |
| 20260502163509 | 71 | 277 | 6.0 | 12.0 | 0.00 | 0.00 | 0.00 | 68 | 1014.7 |
| 20260502162740 | 71 | 296 | 6.0 | 12.0 | 0.00 | 0.00 | 0.00 | 68 | 1014.8 |
| 20260502162238 | 71 | 280 | 5.0 | 11.0 | 0.00 | 0.00 | 0.00 | 67 | 1014.8 |
| 20260502161738 | 72 | 266 | 5.0 | 13.0 | 0.00 | 0.00 | 0.00 | 67 | 1014.7 |
| 20260502161512 | 72 | 293 | 6.0 | 13.0 | 0.00 | 0.00 | 0.00 | 66 | 1014.8 |
| 20260502160738 | 72 | 262 | 7.0 | 12.0 | 0.00 | 0.00 | 0.00 | 65 | 1014.8 |
| 20260502160240 | 73 | 334 | 7.0 | 12.0 | 0.00 | 0.00 | 0.00 | 64 | 1014.8 |
| 20260502152236 | 73 | 210 | 5.0 | 11.0 | 0.00 | 0.00 | 0.00 | 63 | 1015.1 |
| 20260502152009 | 72 | 230 | 6.0 | 12.0 | 0.00 | 0.00 | 0.00 | 63 | 1015.1 |
| 20260502151236 | 72 | 259 | 6.0 | 12.0 | 0.00 | 0.00 | 0.00 | 63 | 1015.2 |
| 20260502150737 | 72 | 281 | 5.0 | 11.0 | 0.00 | 0.00 | 0.00 | 63 | 1015.2 |
| 20260502150508 | 73 | 255 | 4.0 | 10.0 | 0.00 | 0.00 | 0.00 | 62 | 1015.4 |
| 20260502130653 | 74 | 191 | 4.0 | 9.0 | 0.00 | 0.00 | 0.00 | 60 | 1016.2 |
| 20260502130146 | 73 | 190 | 4.0 | 9.0 | 0.00 | 0.00 | 0.00 | 61 | 1016.2 |
| 20260502123616 | 71 | 293 | 5.0 | 10.0 | 0.00 | 0.00 | 0.00 | 63 | 1016.4 |
| 20260502123111 | 71 | 256 | 5.0 | 12.0 | 0.00 | 0.00 | 0.00 | 62 | 1016.5 |
| 20260502122603 | 71 | 233 | 6.0 | 12.0 | 0.00 | 0.00 | 0.00 | 62 | 1016.5 |
| 20260502122059 | 70 | 256 | 6.0 | 14.0 | 0.00 | 0.00 | 0.00 | 62 | 1016.5 |
| 20260502121555 | 71 | 265 | 6.0 | 14.0 | 0.00 | 0.00 | 0.00 | 62 | 1016.5 |
| 20260502121047 | 71 | 282 | 6.0 | 11.0 | 0.00 | 0.00 | 0.00 | 62 | 1016.5 |
| 20260502120541 | 71 | 269 | 7.0 | 11.0 | 0.00 | 0.00 | 0.00 | 64 | 1016.6 |
| 20260502115529 | 70 | 236 | 5.0 | 10.0 | 0.00 | 0.00 | 0.00 | 62 | 1016.5 |
| 20260502115025 | 70 | 268 | 6.0 | 11.0 | 0.00 | 0.00 | 0.00 | 62 | 1016.6 |
| 20260502114516 | 71 | 285 | 7.0 | 13.0 | 0.00 | 0.00 | 0.00 | 61 | 1016.6 |
| 20260502114011 | 71 | 281 | 7.0 | 13.0 | 0.00 | 0.00 | 0.00 | 60 | 1016.7 |
| 20260502113504 | 72 | 281 | 6.0 | 11.0 | 0.00 | 0.00 | 0.00 | 60 | 1016.7 |
| 20260502113000 | 71 | 285 | 6.0 | 15.0 | 0.00 | 0.00 | 0.00 | 60 | 1016.8 |
| 20260502112722 | 71 | 242 | 6.0 | 15.0 | 0.00 | 0.00 | 0.00 | 58 | 1016.8 |
| 20260502111946 | 71 | 177 | 6.0 | 10.0 | 0.00 | 0.00 | 0.00 | 55 | 1016.8 |
| 20260502111441 | 71 | 206 | 5.0 | 11.0 | 0.00 | 0.00 | 0.00 | 54 | 1016.7 |
| 20260502110936 | 71 | 237 | 5.0 | 11.0 | 0.00 | 0.00 | 0.00 | 54 | 1016.7 |
| 20260502110429 | 71 | 187 | 4.0 | 10.0 | 0.00 | 0.00 | 0.00 | 56 | 1016.8 |
| 20260502105922 | 70 | 194 | 4.0 | 9.0 | 0.00 | 0.00 | 0.00 | 58 | 1016.8 |
| 20260502105416 | 70 | 186 | 4.0 | 9.0 | 0.00 | 0.00 | 0.00 | 58 | 1016.9 |
| 20260502105144 | 69 | 225 | 4.0 | 7.0 | 0.00 | 0.00 | 0.00 | 60 | 1016.8 |
| 20260502104405 | 69 | 202 | 3.0 | 6.0 | 0.00 | 0.00 | 0.00 | 59 | 1016.8 |
| 20260502103354 | 67 | 204 | 3.0 | 6.0 | 0.00 | 0.00 | 0.00 | 61 | 1016.9 |
| 20260502102859 | 67 | 185 | 3.0 | 6.0 | 0.00 | 0.00 | 0.00 | 60 | 1016.9 |
| 20260502101617 | 66 | 203 | 2.0 | 5.0 | 0.00 | 0.00 | 0.00 | 59 | 1017.0 |
| 20260502100841 | 66 | 195 | 2.0 | 5.0 | 0.00 | 0.00 | 0.00 | 61 | 1017.1 |
| 20260502100615 | 66 | 214 | 3.0 | 6.0 | 0.00 | 0.00 | 0.00 | 59 | 1017.1 |
| 20260502091334 | 63 | 192 | 3.0 | 8.0 | 0.00 | 0.00 | 0.00 | 63 | 1017.4 |
| 20260502090830 | 63 | 171 | 4.0 | 9.0 | 0.00 | 0.00 | 0.00 | 61 | 1017.5 |
| 20260502090330 | 63 | 178 | 4.0 | 9.0 | 0.00 | 0.00 | 0.00 | 59 | 1017.7 |
| 20260502071321 | 60 | 184 | 4.0 | 8.0 | 0.00 | 0.00 | 0.00 | 64 | 1017.8 |
| 20260502070821 | 60 | 187 | 4.0 | 8.0 | 0.00 | 0.00 | 0.00 | 64 | 1018.0 |
| 20260502070331 | 60 | 186 | 5.0 | 9.0 | 0.00 | 0.00 | 0.00 | 64 | 1017.8 |
| 20260502065320 | 59 | 163 | 4.0 | 9.0 | 0.00 | 0.00 | 0.00 | 64 | 1017.7 |
| 20260502064822 | 59 | 180 | 4.0 | 9.0 | 0.00 | 0.00 | 0.00 | 64 | 1017.5 |
| 20260502064321 | 58 | 174 | 5.0 | 8.0 | 0.00 | 0.00 | 0.00 | 65 | 1017.6 |
| 20260502063820 | 58 | 142 | 5.0 | 8.0 | 0.00 | 0.00 | 0.00 | 66 | 1017.6 |
| 20260502063319 | 58 | 169 | 5.0 | 8.0 | 0.00 | 0.00 | 0.00 | 67 | 1017.6 |
| 20260502062818 | 57 | 167 | 4.0 | 8.0 | 0.00 | 0.00 | 0.00 | 67 | 1017.6 |
| 20260502061807 | 56 | 178 | 5.0 | 9.0 | 0.00 | 0.00 | 0.00 | 68 | 1017.6 |
| 20260502061302 | 55 | 177 | 4.0 | 9.0 | 0.00 | 0.00 | 0.00 | 68 | 1017.5 |
| 20260502060756 | 54 | 205 | 3.0 | 7.0 | 0.00 | 0.00 | 0.00 | 71 | 1017.5 |
| 20260502060256 | 54 | 189 | 3.0 | 7.0 | 0.00 | 0.00 | 0.00 | 72 | 1017.6 |
| 20260502060027 | 53 | 172 | 3.0 | 7.0 | 0.00 | 0.00 | 0.00 | 71 | 1017.4 |
| 20260502055254 | 53 | 182 | 3.0 | 6.0 | 0.00 | 0.00 | 0.00 | 71 | 1017.4 |
| 20260502054755 | 53 | 173 | 3.0 | 6.0 | 0.00 | 0.00 | 0.00 | 71 | 1017.4 |
| 20260502054252 | 52 | 174 | 3.0 | 5.0 | 0.00 | 0.00 | 0.00 | 71 | 1017.5 |
| 20260502053751 | 52 | 188 | 2.0 | 5.0 | 0.00 | 0.00 | 0.00 | 71 | 1017.5 |
| 20260502053253 | 51 | 175 | 3.0 | 8.0 | 0.00 | 0.00 | 0.00 | 72 | 1017.5 |
| 20260502052753 | 51 | 190 | 4.0 | 8.0 | 0.00 | 0.00 | 0.00 | 72 | 1017.5 |
| 20260502052250 | 51 | 173 | 3.0 | 6.0 | 0.00 | 0.00 | 0.00 | 72 | 1017.6 |
| 20260502051750 | 50 | 203 | 2.0 | 5.0 | 0.00 | 0.00 | 0.00 | 72 | 1017.6 |
| 20260502051247 | 50 | 183 | 3.0 | 5.0 | 0.00 | 0.00 | 0.00 | 72 | 1017.7 |
| 20260502051020 | 50 | 170 | 4.0 | 8.0 | 0.00 | 0.00 | 0.00 | 72 | 1017.6 |
| 20260502050249 | 49 | 186 | 5.0 | 8.0 | 0.00 | 0.00 | 0.00 | 72 | 1017.6 |
| 20260502050020 | 49 | 167 | 4.0 | 8.0 | 0.00 | 0.00 | 0.00 | 72 | 1017.7 |
| 20260502045520 | 49 | 167 | 4.0 | 6.0 | 0.00 | 0.00 | 0.00 | 72 | 1017.6 |
| 20260502045021 | 49 | 146 | 3.0 | 7.0 | 0.00 | 0.00 | 0.00 | 72 | 1017.7 |
| 20260502044248 | 49 | 147 | 4.0 | 7.0 | 0.00 | 0.00 | 0.00 | 72 | 1017.6 |
| 20260502044012 | 49 | 150 | 3.0 | 7.0 | 0.00 | 0.00 | 0.00 | 72 | 1017.5 |
| 20260502043509 | 49 | 132 | 3.0 | 7.0 | 0.00 | 0.00 | 0.00 | 72 | 1017.5 |
| 20260502043001 | 49 | 140 | 4.0 | 7.0 | 0.00 | 0.00 | 0.00 | 72 | 1017.7 |
| 20260502042224 | 49 | 151 | 4.0 | 7.0 | 0.00 | 0.00 | 0.00 | 71 | 1017.6 |
| 20260502041720 | 49 | 132 | 3.0 | 7.0 | 0.00 | 0.00 | 0.00 | 71 | 1017.6 |
| 20260502041211 | 49 | 134 | 3.0 | 7.0 | 0.00 | 0.00 | 0.00 | 71 | 1017.7 |
| 20260502040706 | 49 | 142 | 3.0 | 7.0 | 0.00 | 0.00 | 0.00 | 71 | 1017.6 |
| 20260502040201 | 49 | 138 | 3.0 | 7.0 | 0.00 | 0.00 | 0.00 | 71 | 1017.7 |
| 20260502035654 | 49 | 139 | 3.0 | 7.0 | 0.00 | 0.00 | 0.00 | 71 | 1017.8 |
| 20260502035148 | 49 | 118 | 3.0 | 7.0 | 0.00 | 0.00 | 0.00 | 71 | 1017.8 |
| 20260502034642 | 49 | 130 | 4.0 | 7.0 | 0.00 | 0.00 | 0.00 | 71 | 1018.0 |
| 20260502034134 | 49 | 149 | 3.0 | 7.0 | 0.00 | 0.00 | 0.00 | 72 | 1018.0 |
| 20260502033630 | 49 | 137 | 3.0 | 6.0 | 0.00 | 0.00 | 0.00 | 71 | 1018.0 |
| 20260502033122 | 49 | 146 | 3.0 | 6.0 | 0.00 | 0.00 | 0.00 | 71 | 1018.1 |
| 20260502032618 | 49 | 142 | 3.0 | 6.0 | 0.00 | 0.00 | 0.00 | 71 | 1018.1 |
| 20260502032111 | 49 | 127 | 3.0 | 6.0 | 0.00 | 0.00 | 0.00 | 71 | 1018.0 |
| 20260502031606 | 49 | 134 | 3.0 | 5.0 | 0.00 | 0.00 | 0.00 | 71 | 1018.1 |
| 20260502031333 | 49 | 138 | 3.0 | 5.0 | 0.00 | 0.00 | 0.00 | 71 | 1018.1 |
| 20260502030554 | 49 | 130 | 3.0 | 4.0 | 0.00 | 0.00 | 0.00 | 71 | 1018.2 |
| 20260502030100 | 49 | 123 | 3.0 | 4.0 | 0.00 | 0.00 | 0.00 | 71 | 1018.2 |
| 20260502025818 | 49 | 143 | 3.0 | 6.0 | 0.00 | 0.00 | 0.00 | 71 | 1018.3 |
| 20260502025037 | 49 | 137 | 3.0 | 6.0 | 0.00 | 0.00 | 0.00 | 70 | 1018.2 |
| 20260502024530 | 49 | 148 | 4.0 | 6.0 | 0.00 | 0.00 | 0.00 | 70 | 1018.3 |
| 20260502024023 | 49 | 140 | 3.0 | 6.0 | 0.00 | 0.00 | 0.00 | 70 | 1018.3 |
| 20260502023519 | 49 | 145 | 3.0 | 6.0 | 0.00 | 0.00 | 0.00 | 70 | 1018.3 |
| 20260502023012 | 49 | 137 | 3.0 | 6.0 | 0.00 | 0.00 | 0.00 | 69 | 1018.4 |
| 20260502022508 | 49 | 150 | 3.0 | 6.0 | 0.00 | 0.00 | 0.00 | 69 | 1018.4 |
| 20260502022008 | 50 | 149 | 3.0 | 6.0 | 0.00 | 0.00 | 0.00 | 69 | 1018.5 |
| 20260502021507 | 50 | 138 | 3.0 | 5.0 | 0.00 | 0.00 | 0.00 | 69 | 1018.5 |
| 20260502021009 | 50 | 157 | 3.0 | 5.0 | 0.00 | 0.00 | 0.00 | 69 | 1018.6 |
| 20260502020740 | 50 | 140 | 3.0 | 5.0 | 0.00 | 0.00 | 0.00 | 68 | 1018.6 |
| 20260502020009 | 50 | 140 | 3.0 | 5.0 | 0.00 | 0.00 | 0.00 | 68 | 1018.7 |
| 20260502015507 | 51 | 142 | 3.0 | 5.0 | 0.00 | 0.00 | 0.00 | 68 | 1018.7 |
| 20260502015005 | 51 | 138 | 3.0 | 5.0 | 0.00 | 0.00 | 0.00 | 67 | 1018.6 |
| 20260502014505 | 51 | 141 | 2.0 | 4.0 | 0.00 | 0.00 | 0.00 | 67 | 1018.7 |
| 20260502014006 | 51 | 140 | 2.0 | 4.0 | 0.00 | 0.00 | 0.00 | 67 | 1018.7 |
| 20260502013508 | 51 | 139 | 2.0 | 3.0 | 0.00 | 0.00 | 0.00 | 67 | 1018.7 |
| 20260502013006 | 51 | 138 | 2.0 | 3.0 | 0.00 | 0.00 | 0.00 | 67 | 1018.8 |
| 20260502012505 | 51 | 136 | 2.0 | 4.0 | 0.00 | 0.00 | 0.00 | 67 | 1018.8 |
| 20260502012006 | 51 | 136 | 2.0 | 4.0 | 0.00 | 0.00 | 0.00 | 66 | 1018.9 |
| 20260502011504 | 52 | 138 | 2.0 | 4.0 | 0.00 | 0.00 | 0.00 | 66 | 1018.9 |
| 20260502011236 | 52 | 140 | 2.0 | 4.0 | 0.00 | 0.00 | 0.00 | 65 | 1019.0 |
| 20260502010502 | 52 | 140 | 2.0 | 3.0 | 0.00 | 0.00 | 0.00 | 65 | 1019.2 |
| 20260502010002 | 53 | 138 | 2.0 | 3.0 | 0.00 | 0.00 | 0.00 | 65 | 1019.2 |
| 20260502005456 | 53 | 139 | 2.0 | 3.0 | 0.00 | 0.00 | 0.00 | 64 | 1019.2 |
| 20260502004950 | 53 | 140 | 2.0 | 3.0 | 0.00 | 0.00 | 0.00 | 65 | 1019.3 |
| 20260502004446 | 53 | 136 | 3.0 | 4.0 | 0.00 | 0.00 | 0.00 | 65 | 1019.2 |
| 20260502004213 | 53 | 136 | 3.0 | 4.0 | 0.00 | 0.00 | 0.00 | 64 | 1019.3 |
| 20260502003443 | 53 | 138 | 3.0 | 4.0 | 0.00 | 0.00 | 0.00 | 64 | 1019.3 |
| 20260502002943 | 53 | 138 | 2.0 | 4.0 | 0.00 | 0.00 | 0.00 | 64 | 1019.4 |
| 20260502002716 | 53 | 139 | 2.0 | 4.0 | 0.00 | 0.00 | 0.00 | 64 | 1019.5 |
| 20260502002215 | 53 | 137 | 2.0 | 3.0 | 0.00 | 0.00 | 0.00 | 64 | 1019.6 |
| 20260502001442 | 53 | 121 | 2.0 | 3.0 | 0.00 | 0.00 | 0.00 | 63 | 1019.6 |
| 20260502000943 | 54 | 141 | 2.0 | 3.0 | 0.00 | 0.00 | 0.00 | 63 | 1019.7 |
| 20260502000440 | 54 | 147 | 2.0 | 4.0 | 0.00 | 0.00 | 0.00 | 63 | 1019.6 |
| 20260501235941 | 54 | 134 | 2.0 | 4.0 | 0.00 | 0.00 | 0.00 | 62 | 1019.6 |
| 20260501235440 | 54 | 134 | 2.0 | 4.0 | 0.00 | 0.00 | 0.00 | 62 | 1019.7 |
| 20260501234943 | 55 | 133 | 2.0 | 4.0 | 0.00 | 0.00 | 0.00 | 62 | 1019.7 |
| 20260501234440 | 55 | 133 | 2.0 | 4.0 | 0.00 | 0.00 | 0.00 | 61 | 1019.7 |
| 20260501234219 | 55 | 133 | 2.0 | 5.0 | 0.00 | 0.00 | 0.00 | 61 | 1019.7 |
| 20260501233440 | 55 | 145 | 3.0 | 5.0 | 0.00 | 0.00 | 0.00 | 61 | 1019.7 |
| 20260501233213 | 55 | 141 | 3.0 | 5.0 | 0.00 | 0.00 | 0.00 | 61 | 1019.8 |
| 20260501232442 | 55 | 132 | 3.0 | 4.0 | 0.00 | 0.00 | 0.00 | 61 | 1019.8 |
| 20260501231941 | 55 | 133 | 3.0 | 5.0 | 0.00 | 0.00 | 0.00 | 62 | 1019.9 |
| 20260501231442 | 55 | 141 | 2.0 | 5.0 | 0.00 | 0.00 | 0.00 | 62 | 1019.9 |
| 20260501230941 | 55 | 116 | 2.0 | 3.0 | 0.00 | 0.00 | 0.00 | 62 | 1019.8 |
| 20260501230712 | 55 | 116 | 2.0 | 3.0 | 0.00 | 0.00 | 0.00 | 62 | 1019.9 |
| 20260501225940 | 55 | 116 | 2.0 | 3.0 | 0.00 | 0.00 | 0.00 | 62 | 1020.0 |
| 20260501225440 | 56 | 115 | 2.0 | 3.0 | 0.00 | 0.00 | 0.00 | 61 | 1020.0 |
| 20260501224941 | 56 | 115 | 2.0 | 4.0 | 0.00 | 0.00 | 0.00 | 61 | 1020.1 |
| 20260501224441 | 56 | 132 | 2.0 | 4.0 | 0.00 | 0.00 | 0.00 | 61 | 1020.1 |
| 20260501223940 | 56 | 128 | 2.0 | 3.0 | 0.00 | 0.00 | 0.00 | 61 | 1020.1 |
| 20260501223717 | 56 | 129 | 2.0 | 3.0 | 0.00 | 0.00 | 0.00 | 61 | 1020.3 |
| 20260501223216 | 56 | 141 | 2.0 | 3.0 | 0.00 | 0.00 | 0.00 | 60 | 1020.3 |
| 20260501222442 | 56 | 142 | 2.0 | 3.0 | 0.00 | 0.00 | 0.00 | 60 | 1020.2 |
| 20260501221935 | 57 | 154 | 2.0 | 4.0 | 0.00 | 0.00 | 0.00 | 59 | 1020.2 |
| 20260501221429 | 57 | 146 | 3.0 | 5.0 | 0.00 | 0.00 | 0.00 | 59 | 1020.3 |
| 20260501220923 | 57 | 134 | 3.0 | 5.0 | 0.00 | 0.00 | 0.00 | 58 | 1020.3 |
| 20260501220418 | 57 | 139 | 3.0 | 4.0 | 0.00 | 0.00 | 0.00 | 58 | 1020.3 |
| 20260501215909 | 58 | 139 | 3.0 | 4.0 | 0.00 | 0.00 | 0.00 | 57 | 1020.3 |
| 20260501215404 | 58 | 140 | 2.0 | 3.0 | 0.00 | 0.00 | 0.00 | 57 | 1020.4 |
| 20260501214858 | 58 | 142 | 2.0 | 3.0 | 0.00 | 0.00 | 0.00 | 56 | 1020.4 |
| 20260501214627 | 58 | 136 | 2.0 | 3.0 | 0.00 | 0.00 | 0.00 | 55 | 1020.3 |